Nenana, AK

12:44 PM AKDT on March 24, 2017 (GMT -0800)
Nenana Municipal

Weather History for PANN - October, 2012

Change the Weather History Date:

Friday, October 5, 2012

  Actual Average Record
Temperature  
Mean Temperature 54 °F -  
Max Temperature 66 °F 40 °F 71 °F (1964)
Min Temperature 41 °F 25 °F 21 °F (2007)
Degree Days  
Heating Degree Days 12    
Growing Degree Days 4 (Base 50)    
Moisture  
Dew Point 37 °F    
Average Humidity 77    
Maximum Humidity 93    
Minimum Humidity 61    
Precipitation  
Precipitation 0.02 in - - ()
Sea Level Pressure  
Sea Level Pressure 30.08 in    
Wind  
Wind Speed 4 mph (East)    
Max Wind Speed 12 mph    
Max Gust Speed -    
Visibility 10 miles    
Events Rain    
Averages and records for this station are not official NWS values.
T = Trace of Precipitation, MM = Missing Value Source: NWS Daily Summary

Daily Weather History Graph

Daily Weather History Graph

Search for Another Location

Airport or City:

Trip Planner

Search our weather history database for the weather conditions in past years. The results will help you decide how hot, cold, wet, or windy it might be!

Date:

Astronomy

Oct. 05, 2012 Rise Set
Actual Time 8:19 AM AKDT 7:07 PM AKDT
Civil Twilight 7:31 AM AKDT 7:56 PM AKDT
Nautical Twilight 6:34 AM AKDT 8:52 PM AKDT
Astronomical Twilight 5:34 AM AKDT 9:51 PM AKDT
Moon 8:39 PM AKDT (10/5) 3:35 PM AKDT (10/5)
Length of Visible Light 12h 24m
Length of Day
10h 48m
Waning Gibbous, 73% of the Moon is Illuminated
Oct 5
Waning Gibbous
Oct 7
Last Quarter
Oct 15
New
Oct 21
First Quarter
Oct 29
Full

Hourly Weather History & Observations

Time (AKDT) Temp. Windchill Dew Point Humidity Pressure Visibility Wind Dir Wind Speed Gust Speed Precip Events Conditions
12:53 AM 39.0 °F 35.7 °F 34.0 °F 82% 29.95 in 10.0 mi West 4.6 mph - N/A   Clear
1:53 AM 36.0 °F - 33.1 °F 89% 29.97 in 10.0 mi Calm Calm - N/A   Clear
2:53 AM 37.9 °F 34.4 °F 33.1 °F 83% 30.00 in 10.0 mi Variable 4.6 mph - N/A   Clear
3:53 AM 37.9 °F 33.5 °F 33.1 °F 83% 30.03 in 10.0 mi WNW 5.8 mph - N/A   Clear
4:53 AM 37.0 °F 34.5 °F 33.1 °F 86% 30.04 in 10.0 mi NW 3.5 mph - N/A   Clear
5:53 AM 36.0 °F - 33.1 °F 89% 30.06 in 10.0 mi Calm Calm - N/A   Clear
6:53 AM 35.1 °F - 32.0 °F 89% 30.08 in 10.0 mi Calm Calm - N/A   Mostly Cloudy
7:53 AM 39.9 °F 35.8 °F 35.1 °F 83% 30.09 in 10.0 mi WNW 5.8 mph - N/A   Mostly Cloudy
8:53 AM 39.0 °F 34.8 °F 35.1 °F 86% 30.10 in 10.0 mi NW 5.8 mph - N/A   Clear
9:53 AM 41.0 °F 35.8 °F 35.1 °F 79% 30.10 in 10.0 mi SW 8.1 mph - N/A   Partly Cloudy
10:53 AM 46.9 °F - 36.0 °F 66% 30.10 in 10.0 mi SE 4.6 mph - N/A   Scattered Clouds
11:53 AM 46.9 °F - 36.0 °F 66% 30.10 in 10.0 mi Calm Calm - N/A   Partly Cloudy
12:53 PM 48.0 °F - 36.0 °F 63% 30.09 in 10.0 mi East 4.6 mph - N/A   Clear
1:53 PM 48.0 °F - 35.1 °F 61% 30.08 in 10.0 mi East 9.2 mph - N/A   Clear
2:53 PM 48.0 °F - 35.1 °F 61% 30.06 in 10.0 mi ENE 5.8 mph - N/A   Clear
3:53 PM 46.9 °F - 35.1 °F 63% 30.05 in 10.0 mi ESE 4.6 mph - N/A   Clear
4:53 PM 46.0 °F 42.5 °F 35.1 °F 66% 30.03 in 10.0 mi East 6.9 mph - N/A   Partly Cloudy
5:53 PM 45.0 °F 42.6 °F 36.0 °F 71% 30.02 in 10.0 mi ESE 4.6 mph - N/A   Overcast
6:53 PM 44.1 °F 41.5 °F 36.0 °F 73% 30.01 in 10.0 mi ESE 4.6 mph - N/A   Overcast
7:53 PM 43.0 °F - 36.0 °F 76% 30.01 in 10.0 mi Calm Calm - N/A   Overcast
8:53 PM 42.1 °F 40.2 °F 35.1 °F 76% 30.01 in 10.0 mi East 3.5 mph - N/A   Overcast
9:53 PM 43.0 °F - 36.0 °F 76% 30.02 in 10.0 mi Calm Calm - 0.00 in Rain Light Rain
10:53 PM 41.0 °F 38.0 °F 39.0 °F 93% 30.03 in 10.0 mi West 4.6 mph - 0.02 in   Overcast
11:53 PM 41.0 °F - 39.0 °F 93% 30.04 in 10.0 mi Calm Calm - N/A   Overcast